Newton, KS

5:05 AM CST on December 12, 2019 (GMT -0600)
Newton City County

Weather History for KEWK - October, 2019

Change the Weather History Date:

Wednesday, October 30, 2019

  Actual Average Record
Temperature  
Mean Temperature 28 °F -  
Max Temperature 33 °F 58 °F 75 °F (2001)
Min Temperature 21 °F 40 °F 21 °F (2019)
Degree Days  
Heating Degree Days 36    
Moisture  
Dew Point 24 °F    
Average Humidity 82    
Maximum Humidity 93    
Minimum Humidity 69    
Precipitation  
Precipitation 0.00 in - - ()
Sea Level Pressure  
Sea Level Pressure 30.27 in    
Wind  
Wind Speed 18 mph (NNW)    
Max Wind Speed 25 mph    
Max Gust Speed 30 mph    
Visibility 8 miles    
Events Snow    
Averages and records for this station are not official NWS values.
T = Trace of Precipitation, MM = Missing Value Source: NWS Daily Summary

Daily Weather History Graph

Daily Weather History Graph

Search for Another Location

Airport or City:

Astronomy

Oct. 30, 2019 Rise Set
Actual Time 7:52 AM CDT 6:32 PM CDT
Civil Twilight 7:25 AM CDT 6:59 PM CDT
Nautical Twilight 6:54 AM CDT 7:30 PM CDT
Astronomical Twilight 6:23 AM CDT 8:01 PM CDT
Moon 10:35 AM CDT (10/30) 8:43 PM CDT (10/30)
Length of Visible Light 11h 34m
Length of Day
10h 39m
Waxing Crescent, 9% of the Moon is Illuminated
Oct 30
Waxing Crescent
Nov 4
First Quarter
Nov 12
Full
Nov 19
Last Quarter
Nov 26
New

Hourly Weather History & Observations

Time (CDT) Temp. Windchill Dew Point Humidity Pressure Visibility Wind Dir Wind Speed Gust Speed Precip Events Conditions
12:56 AM 33.1 °F 23.0 °F 26.1 °F 75% 30.26 in 10.0 mi NNE 15.0 mph 21.9 mph N/A   Overcast
1:56 AM 33.1 °F 22.6 °F 26.1 °F 75% 30.25 in 10.0 mi NNE 16.1 mph 21.9 mph N/A   Overcast
3:08 AM 33.8 °F 22.2 °F 26.6 °F 75% 30.21 in 10.0 mi NNE 20.7 mph 25.3 mph N/A   Overcast
3:56 AM 33.1 °F 21.9 °F 27.0 °F 78% 30.25 in 10.0 mi North 18.4 mph 26.5 mph N/A   Overcast
4:20 AM 33.8 °F 23.2 °F 26.6 °F 75% 30.22 in 10.0 mi North 17.3 mph - N/A   Overcast
4:56 AM 33.1 °F 20.9 °F 26.1 °F 75% 30.24 in 10.0 mi North 21.9 mph - N/A   Overcast
5:56 AM 32.0 °F 19.8 °F 27.0 °F 82% 30.23 in 10.0 mi North 20.7 mph - N/A   Overcast
6:56 AM 32.0 °F 20.1 °F 26.1 °F 79% 30.24 in 10.0 mi North 19.6 mph 29.9 mph N/A   Overcast
7:34 AM 30.2 °F 16.8 °F 24.8 °F 80% 30.19 in 10.0 mi NNE 23.0 mph 27.6 mph N/A   Overcast
7:56 AM 30.9 °F 18.4 °F 25.0 °F 79% 30.23 in 10.0 mi NNE 20.7 mph - N/A   Overcast
8:56 AM 30.9 °F 17.2 °F 24.1 °F 76% 30.26 in 10.0 mi North 25.3 mph - N/A   Overcast
9:56 AM 28.9 °F 15.4 °F 23.0 °F 78% 30.27 in 9.0 mi North 21.9 mph - 0.00 in Snow Light Snow
10:07 AM 28.4 °F 14.1 °F 23.0 °F 80% 30.23 in 9.0 mi North 24.2 mph 29.9 mph 0.00 in Snow Light Snow
10:56 AM 30.0 °F 17.2 °F 21.0 °F 69% 30.29 in 9.0 mi North 20.7 mph - 0.00 in Snow Light Snow
11:56 AM 30.0 °F 16.9 °F 23.0 °F 75% 30.30 in 9.0 mi North 21.9 mph 27.6 mph 0.00 in Snow Light Snow
12:53 PM 30.2 °F 17.1 °F 23.0 °F 75% 30.25 in 9.0 mi North 21.9 mph 28.8 mph 0.00 in Snow Light Snow
12:56 PM 30.0 °F 16.6 °F 23.0 °F 75% 30.29 in 9.0 mi North 23.0 mph 28.8 mph 0.00 in Snow Light Snow
1:24 PM 30.2 °F 18.1 °F 23.0 °F 75% 30.24 in 10.0 mi North 18.4 mph - 0.00 in   Overcast
1:56 PM 30.9 °F 17.2 °F 21.9 °F 69% 30.26 in 10.0 mi North 25.3 mph 29.9 mph 0.00 in   Overcast
2:56 PM 30.9 °F 17.5 °F 21.9 °F 69% 30.25 in 10.0 mi North 24.2 mph 27.6 mph N/A   Overcast
3:18 PM 30.2 °F 16.8 °F 23.0 °F 75% 30.23 in 10.0 mi NNW 23.0 mph 29.9 mph N/A   Overcast
3:56 PM 30.0 °F 17.2 °F 23.0 °F 75% 30.26 in 9.0 mi North 20.7 mph - 0.00 in Snow Light Snow
4:56 PM 30.0 °F 17.9 °F 24.1 °F 79% 30.28 in 9.0 mi North 18.4 mph - 0.00 in Snow Light Snow
5:52 PM 28.4 °F 15.1 °F 24.8 °F 86% 30.26 in 6.0 mi NNW 20.7 mph - 0.00 in Snow Light Snow
6:08 PM 28.4 °F 16.6 °F 24.8 °F 86% 30.26 in 6.0 mi NNW 16.1 mph - 0.00 in Snow Light Snow
6:23 PM 28.4 °F 17.5 °F 26.6 °F 93% 30.26 in 3.0 mi NNW 13.8 mph - 0.00 in Snow Light Snow
6:39 PM 28.4 °F 15.4 °F 24.8 °F 86% 30.26 in 2.5 mi NNW 19.6 mph - 0.00 in Snow Light Snow
6:48 PM 28.4 °F 17.5 °F 24.8 °F 86% 30.27 in 2.0 mi NNW 13.8 mph - 0.00 in Snow Light Snow
6:56 PM 28.0 °F 16.1 °F 25.0 °F 88% 30.31 in 4.0 mi NNW 16.1 mph - 0.00 in Snow Light Snow
7:27 PM 28.4 °F 16.2 °F 24.8 °F 86% 30.28 in 5.0 mi NNW 17.3 mph 20.7 mph 0.00 in Snow Light Snow
7:49 PM 26.6 °F 14.3 °F 24.8 °F 93% 30.28 in 5.0 mi NNW 16.1 mph 26.5 mph 0.00 in Snow Light Snow
7:56 PM 27.0 °F 14.7 °F 25.0 °F 92% 30.33 in 5.0 mi NW 16.1 mph - 0.00 in Snow Light Snow
8:26 PM 26.6 °F 14.7 °F 24.8 °F 93% 30.30 in 6.0 mi NW 15.0 mph 23.0 mph 0.00 in Snow Light Snow
8:36 PM 26.6 °F 14.3 °F 23.0 °F 86% 30.30 in 5.0 mi NW 16.1 mph 24.2 mph 0.00 in Snow Light Snow
8:49 PM 26.6 °F 14.7 °F 23.0 °F 86% 30.30 in 6.0 mi NNW 15.0 mph - 0.00 in Snow Light Snow
8:56 PM 26.1 °F 14.0 °F 23.0 °F 88% 30.35 in 6.0 mi NW 15.0 mph - 0.00 in Snow Light Snow
9:22 PM 24.8 °F 12.4 °F 23.0 °F 93% 30.31 in 8.0 mi NW 15.0 mph - 0.00 in   Overcast
9:56 PM 26.1 °F 15.6 °F 24.1 °F 92% 30.37 in 8.0 mi NW 11.5 mph - 0.00 in Snow Light Snow
10:42 PM 24.8 °F 14.0 °F 21.2 °F 86% 30.32 in 9.0 mi NW 11.5 mph - 0.00 in   Scattered Clouds
10:56 PM 24.1 °F 13.1 °F 21.9 °F 91% 30.37 in 10.0 mi NW 11.5 mph - 0.00 in   Mostly Cloudy
11:56 PM 21.9 °F 12.5 °F 19.9 °F 92% 30.36 in 10.0 mi WNW 8.1 mph - 0.00 in   Clear